Location: Apeadero de Los Molinos-Guadarrama
(40.7091°N, 4.0689°W)
Time: 11:39:32
(UTC+00:00)

NOSS 3-4 (A) - Pass Details

Date: 14 May 2021
Orbit: 872 x 1340 km, 63.4° (Epoch: 06 May)

Event Time Altitude Azimuth Distance (km) Brightness Sun altitude
Rises 20:46:51 0° 328° (NNW) 3,815 8.1 -13.7°
Reaches altitude 10° 20:49:30 10° 334° (NNW) 2,925 7.1 -14.1°
Maximum altitude 20:56:17 49° 49° (NE) 1,478 4.4 -15.0°
Enters shadow 21:01:33 20° 115° (ESE) 2,527 5.1 -15.8°
